Regional Weather Roundup
Issued by NWS

Home | Current Version | Previous Version | Text Only | Print | Product List | Glossary Off
Versions: 1 2 3 4 5 6 7 8 9 10 11 12 13 14 15 16 17 18 19 20 21 22 23 24 25 26 27 28 29 30 31 32 33 34 35 36 37 38 39 40 41 42 43 44 45 46 47 48 49 50

176
ASUS44 KLIX 201310
RWRLA
LOUISIANA WEATHER ROUNDUP
NATIONAL WEATHER SERVICE NEW ORLEANS LA
800 AM CDT MON OCT 20 2014

NOTE: "FAIR" INDICATES FEW OR NO CLOUDS BELOW 12,000 FEET WITH NO
      SIGNIFICANT WEATHER AND/OR OBSTRUCTIONS TO VISIBILITY.
      SKY/WX - SKY CONDITION AND SIGNIFICANT WEATHER.
      TMP - AIR TEMPERATURE.    DP   - DEWPOINT TEMPERATURE.
      RH  - RELATIVE HUMIDITY.  PRES - PRESSURE.
      HX  - HEAT INDEX.         WCI  - WIND CHILL INDEX.

*  THESE STATIONS ARE NOT NWS OR FAA STATIONS AND ARE NOT UNDER
   NWS QUALITY CONTROL.

LAZ040-048-061>063-065-066-069-201400-
SOUTHEAST LOUISIANA

CITY           SKY/WX    TMP DP  RH WIND       PRES   REMARKS
N.O. AUDUBON     N/A     64  59  83 MISG        N/A
N.O. INTL ARPT MOSUNNY   62  57  83 NE3       30.05R
N.O. LAKEFRONT SUNNY     67  59  75 E8        30.06R
N.O. DOWNTOWN* FAIR      66  54  63 NE7       30.05R
SLIDELL        SUNNY     52  48  86 N6        30.05R
BATON ROUGE    CLEAR     54  49  83 N3        30.06R
BOOTHVILLE     SUNNY     71  64  78 CALM      30.03S
BELLE CHASSE   MOSUNNY   59  56  89 CALM      30.04R
BOGALUSA*        N/A     49  46  89 CALM      30.09R
NEW ROADS*     FAIR      52  52  98 CALM      30.07R
GONZALES*      FAIR      54  54 100 CALM      30.05R
HAMMOND*       SUNNY     54  48  82 CALM      30.08R
HOUMA*         MOSUNNY   61  61 100 NE7       30.02S
PORT FOURCHON* SUNNY     72  63  73 NE7       30.06R

$$

LAZ041-044-053-054-201400-
SOUTHWEST LOUISIANA

CITY           SKY/WX    TMP DP  RH WIND       PRES   REMARKS
LAKE CHARLES   PTCLDY    58  54  86 E5        30.04R
LAFAYETTE      CLEAR     57  55  93 CALM      30.05R
PATTERSON      NOT AVBL
SALT POINT       N/A     63  60  90 VRB3      30.03R
NEW IBERIA     CLEAR     60  56  86 E5        30.05R
CHENAULT AIRPK PTCLDY    57  54  88 NE8       30.05R

$$

LAZ027-028-201400-
CENTRAL LOUISIANA

CITY           SKY/WX    TMP DP  RH WIND       PRES   REMARKS
FORT POLK      CLEAR     56  49  79 E2        30.08R
ALEXANDRIA INT CLEAR     50  50 100 CALM      30.07R
ALEXANDRIA     CLEAR     48  47  96 CALM      30.08R

$$

LAZ001-002-201400-
NORTHWEST LOUISIANA

CITY           SKY/WX    TMP DP  RH WIND       PRES   REMARKS
SHREVEPORT     PTCLDY    49  47  93 CALM      30.09R
BARKSDALE AFB  CLEAR     47  47  98 CALM      30.10R
DTN SHREVEPORT CLEAR     48  47  96 CALM      30.10R

$$

LAZ014-016-201400-
NORTHEAST LOUISIANA

CITY           SKY/WX    TMP DP  RH WIND       PRES   REMARKS
MONROE         CLEAR     48  47  96 CALM      30.10R
TALLULAH       PTCLDY    47  46  97 CALM      30.10R

$$




USA.gov is the U.S. government's official web portal to all federal, state and local government web resources and services.